Location: Carnoy
(49.9849°N, 2.7558°E)
Time: 10:25:47
(UTC+00:00)

SL-16 R/B - Pass Details

Date: 24 January 2020
Orbit: 841 x 848 km, 71.0° (Epoch: 16 February)

Event Time Altitude Azimuth Distance (km) Brightness Sun altitude
Rises 17:19:50 0° 332° (NNW) 3,421 5.5 -8.3°
Reaches altitude 10° 17:22:23 10° 338° (NNW) 2,481 4.7 -8.6°
Maximum altitude 17:27:55 49° 53° (NE) 1,080 2.4 -9.5°
Drops below altitude 10° 17:33:23 10° 129° (SE) 2,463 4.3 -10.3°
Sets 17:35:54 0° 134° (SE) 3,393 5.1 -10.7°
